NIMIQ 4

Last updated on Sat Apr 13 2024 01:02:37 GMT+0100 (British Summer Time)

1 33373U 08044A 24103.50445028 -.00000229 00000+0 00000+0 0 9995 2 33373 0.0197 135.9950 0002343 243.4439 281.3597 1.00271314 57007
UTC large
Height (km)
Speed (km/s)
/
Latitude / Longitude
Inclination (degrees)
Orbital Period (minutes)
Azimuth
Elevation
Range (km)
Doppler Factor

Next 0 passes for location: London (51.5072 / 0.1276)

Sorry there are no passes over London.